Flag for Germany Weather past 2 weeks in Rheda-Wiedenbrück, North Rhine-Westphalia, Germany

Now
68 °F

Clear.


Feels Like: 68 °F
Forecast: 63 / 85 °F
Wind: 7 mph from Southeast

Location: Paderborn / Lippstadt

Current Time: Aug 2, 2014 at 12:34:51 AM

Latest Report: Aug 1, 2014 at 11:50 PM


Visibility: 10 mi

Pressure: 29.86 "Hg

Humidity: 64%

Dew point: 55 °F

Location of Rheda-WiedenbrückLocation

Historic Weather in Rheda-Wiedenbrück — Graph

°F

Rheda-Wiedenbrück temperature yesterday

Maximum temperature yesterday: 79 °F (at 1:50 PM)
Minimum temperature yesterday: 61 °F (at 5:50 AM)
Average temperature yesterday: 72 °F

Past Weeks' High & Low Weather Summary

 TemperatureHumidityPressure
High88 °F (Jul 19, 1:50 PM)100% (Jul 21, 5:50 AM)30.15 "Hg (Jul 21, 5:50 AM)
Low55 °F (Jul 24, 4:50 AM)27% (Jul 19, 1:20 PM)29.77 "Hg (Jul 29, 6:50 PM)
Average69 °F70%29.95 "Hg
* Reported Jul 17 11:20 PM — Aug 1 11:20 PM, Rheda-Wiedenbrück, Weather by CustomWeather, © 2014

Note: Actual official high and low records may vary slightly from our data, if they occured in-between our weather recording intervals... More about our weather records

Advertising

Rheda-Wiedenbrück weather history for previous 24 hours

 ConditionsComfort  
Time TempWeatherWind HumidityBarometerVisibility
11:20 PM
Aug 1
70 °FClear.6 mph60%29.86 "Hg10 mi
10:50 PM68 °FClear.6 mph64%29.86 "Hg10 mi
10:20 PM70 °FClear.6 mph60%29.86 "Hg10 mi
9:50 PM70 °FSunny.6 mph60%29.83 "Hg10 mi
9:20 PM72 °FSunny.6 mph57%29.83 "Hg10 mi
8:50 PM73 °FSunny.5 mph53%29.83 "Hg10 mi
8:20 PM73 °FSunny.5 mph53%29.83 "Hg10 mi
7:50 PM75 °FSunny.5 mph47%29.83 "Hg10 mi
7:20 PM77 °FSunny.6 mph42%29.83 "Hg10 mi
6:50 PM79 °FPassing clouds.7 mph39%29.83 "HgN/A
6:20 PM79 °FPassing clouds.6 mph39%29.83 "HgN/A
5:50 PM79 °FSunny.9 mph37%29.83 "Hg10 mi
5:20 PM77 °FSunny.7 mph39%29.86 "Hg10 mi
4:50 PM79 °FSunny.9 mph39%29.86 "Hg10 mi
4:20 PM79 °FSunny.9 mph34%29.86 "Hg10 mi
3:50 PM79 °FPassing clouds.8 mph34%29.86 "HgN/A
3:20 PM79 °FSunny.9 mph37%29.86 "Hg10 mi
2:50 PM77 °FPassing clouds.8 mph36%29.86 "HgN/A
2:20 PM79 °FPassing clouds.9 mph39%29.86 "HgN/A
1:50 PM79 °FPassing clouds.12 mph42%29.89 "HgN/A
1:20 PM77 °FPassing clouds.9 mph42%29.89 "HgN/A
12:50 PM77 °FPassing clouds.6 mph42%29.89 "HgN/A
12:20 PM75 °FPassing clouds.7 mph44%29.89 "HgN/A
11:50 AM75 °FPassing clouds.8 mph44%29.89 "HgN/A
11:20 AM75 °FSunny.5 mph47%29.89 "Hg10 mi
10:50 AM75 °FPassing clouds.6 mph44%29.92 "HgN/A
10:20 AM73 °FSunny.7 mph47%29.92 "Hg10 mi
9:50 AM73 °FPassing clouds.6 mph47%29.92 "HgN/A
9:20 AM72 °FSunny.7 mph53%29.92 "Hg10 mi
8:50 AM68 °FSunny.7 mph56%29.92 "Hg10 mi
8:20 AM66 °FSunny.5 mph60%29.92 "Hg10 mi
7:50 AM64 °FSunny.6 mph60%29.92 "Hg10 mi
7:20 AM63 °FSunny.5 mph64%29.92 "Hg10 mi
6:50 AM63 °FSunny.6 mph64%29.92 "Hg10 mi
6:20 AM61 °FClear.6 mph68%29.92 "Hg10 mi
5:50 AM61 °FClear.3 mph68%29.92 "Hg10 mi
5:20 AM63 °FClear.6 mph64%29.92 "Hg10 mi
4:50 AM63 °FClear.6 mph64%29.92 "Hg10 mi
4:20 AM64 °FClear.7 mph60%29.92 "Hg10 mi
Weather by CustomWeather, © 2014

See weather overviewHow to use our weather pages